Notices

What's New in latest Release from April 7th, 2021:

- Updated Glossary, including Speed of Maximum Gust, and Total Hourly Precipitation

- Updated national and regional climate services offices contacts and prices information

- Addition of station inventory lists for 1981-2010, 1971-2000, and 1961-1990 Normals.

If you haven't already, please take our survey and provide feedback about our website: https://eccc.sondage-survey.ca/f/LanguageSelection.aspx?s=442ca660-fcf1-47c0-95a9-59707d6fd709

Hourly Data Report for December 17, 2016

CARBERRY CS
MANITOBA

49°54'20.900" N
99°21'26.800" W
383.50 m
5010547
71170
WZE

Download Data

Hourly Data (December 2016)
Hourly Data Report for December 17, 2016
TIME
LST
Temp Definition
°C
Dew Point Definition
°C
Rel Hum Definition
%
Precip. Amount Definition
mm

Wind Dir Definition
10's deg

Wind Spd Definition
km/h
Visibility Definition
km
Stn Press Definition
kPa
Hmdx Definition


Wind Chill Definition


Weather Definition


00:00 -32.1 -35.4 73 0.0 27 13   97.40   -43 LegendNANA
01:00 -30.8 -34.0 74 0.3 28 16   97.36   -43 LegendNANA
02:00 -33.4 -36.8 71 0.0 28 9   97.36   -43 LegendNANA
03:00 -32.7 -35.9 73 0.0 27 10   97.39   -42 LegendNANA
04:00 -33.3 -36.8 71 0.0 26 12   97.42   -44 LegendNANA
05:00 -34.2 -37.7 71 0.0 27 13   97.41   -46 LegendNANA
06:00 -33.8 -37.4 70 0.0 25 11   97.42   -44 LegendNANA
07:00 -34.7 -38.2 71 0.0 27 9   97.47   -44 LegendNANA
08:00 -33.9 -37.2 72 0.0 25 11   97.47   -44 LegendNANA
09:00 -33.0 -36.5 71 0.0 26 14   97.50   -45 LegendNANA
10:00 -31.4 -35.7 66 0.7 26 12   97.52   -42 LegendNANA
11:00 -29.2 -33.8 65 0.0 26 13   97.57   -40 LegendNANA
12:00 -27.9 -33.2 61 0.0 25 15   97.55   -39 LegendNANA
13:00 -27.1 -32.4 61 0.0 26 17   97.51   -39 LegendNANA
14:00 -26.1 -31.8 59 0.0 25 15   97.46   -37 LegendNANA
15:00 -25.9 -31.4 60 0.0 26 17   97.47   -37 LegendNANA
16:00 -26.6 -31.6 63 0.0 26 19   97.51   -39 LegendNANA
17:00 -26.8 -31.2 66 0.0 25 13   97.54   -37 LegendNANA
18:00 -27.3 -31.5 67 0.0 24 11   97.53   -36 LegendNANA
19:00 -28.0 -32.1 68 0.0 26 18   97.47   -40 LegendNANA
20:00 -28.8 -32.5 71 0.0 25 10   97.50   -38 LegendNANA
21:00 -29.9 -33.5 71 0.0 27 18   97.48   -42 LegendNANA
22:00 -29.4 -32.9 71 0.0 24 9   97.49   -38 LegendNANA
23:00 -30.2 -33.6 72 0.0 25 10   97.48   -39 LegendNANA

Notes on Data Quality.

Legend

  • E = Estimated
  • M = Missing
  • NA = Not Available*
  • [empty] = Indicates an unobserved value
Date modified: